Notices

What's New in latest Release from April 7th, 2021:

- Updated Glossary, including Speed of Maximum Gust, and Total Hourly Precipitation

- Updated national and regional climate services offices contacts and prices information

- Addition of station inventory lists for 1981-2010, 1971-2000, and 1961-1990 Normals.

If you haven't already, please take our survey and provide feedback about our website: https://eccc.sondage-survey.ca/f/LanguageSelection.aspx?s=442ca660-fcf1-47c0-95a9-59707d6fd709

Hourly Data Report for July 19, 2018

OTTAWA INTL A
ONTARIO
Current Station Operator: NAVCAN

45°19'00.000" N
75°40'00.000" W
114.90 m
6106001
71628
YOW

Download Data

Hourly Data (July 2018)
Hourly Data Report for July 19, 2018
TIME
LST
Temp Definition
°C
Dew Point Definition
°C
Rel Hum Definition
%
Precip. Amount Definition
mm

Wind Dir Definition
10's deg

Wind Spd Definition
km/h
Visibility Definition
km
Stn Press Definition
kPa
Hmdx Definition


Wind Chill Definition


Weather Definition


00:00 13.4 8.6 73   14 4 24.1 100.34     LegendNANA
01:00 12.8 8.7 76   18 5 24.1 100.39     Clear
02:00 13.6 9.1 74   20 10 24.1 100.40     LegendNANA
03:00 11.5 8.4 81   20 5 24.1 100.41     LegendNANA
04:00 11.3 8.2 81   18 4 24.1 100.41     Clear
05:00 11.3 8.0 80   20 5 24.1 100.47     LegendNANA
06:00 13.7 9.8 77   16 8 24.1 100.47     LegendNANA
07:00 16.4 12.0 75   20 6 24.1 100.51     Clear
08:00 20.2 13.4 65   23 8 24.1 100.56     LegendNANA
09:00 22.5 13.7 57   20 11 24.1 100.53 26   LegendNANA
10:00 25.0 9.2 36   24 11 24.1 100.50 26   Mostly Cloudy
11:00 25.9 7.7 31   20 16 24.1 100.47 26   LegendNANA
12:00 27.4 8.4 30   21 21 24.1 100.44 28   LegendNANA
13:00 28.1 8.1 28   26 21 24.1 100.40 29   Mainly Clear
14:00 27.9 6.8 26   22 13 24.1 100.37 28   LegendNANA
15:00 29.0 6.9 24   22 16 24.1 100.34 29   LegendNANA
16:00 29.1 8.8 28   24 14 24.1 100.31 30   Clear
17:00 29.0 9.3 29   23 17 24.1 100.29 30   LegendNANA
18:00 27.9 11.0 34   22 13 24.1 100.31 30   LegendNANA
19:00 25.5 12.1 43   21 20 24.1 100.33 28   Mainly Clear
20:00 22.9 11.6 48   18 13 24.1 100.37 25   LegendNANA
21:00 21.2 11.5 53   18 11 24.1 100.42     LegendNANA
22:00 19.3 11.2 59   18 8 24.1 100.43     Clear
23:00 18.7 11.1 61   19 9 24.1 100.45     LegendNANA

Notes on Data Quality.

Legend

  • E = Estimated
  • M = Missing
  • NA = Not Available*
  • [empty] = Indicates an unobserved value
Date modified: